JAS-2 (FO-29)

Last updated on Sun Aug 31 2025 00:03:10 GMT+0000 (Coordinated Universal Time)

1 24278U 96046B 25242.08204700 .00000012 00000+0 45177-4 0 9994 2 24278 98.5621 125.2087 0350622 131.3126 231.8760 13.53252313433797
UTC large
Height (km)
Speed (km/s)
/
Latitude / Longitude
Inclination (degrees)
Orbital Period (minutes)
Azimuth
Elevation
Range (km)
Doppler Factor

Next 0 passes for location: London (51.5072 / 0.1276)

Sorry there are no passes over London.